Time,TemperatureF,DewpointF,PressureIn,WindDirection,WindDirectionDegrees,WindSpeedMPH,WindSpeedGustMPH,Humidity,HourlyPrecipIn,Conditions,Clouds,dailyrainin,SoftwareType,DateUTC
2013-02-18 00:01:00,35.0,32.0,30.01,East,82,0.0,0.0,87,0.00,,,0.00,,2013-02-18 08:01:00,
2013-02-18 00:11:00,35.0,32.0,30.01,East,82,0.0,0.0,87,0.00,,,0.00,,2013-02-18 08:11:00,
2013-02-18 00:21:00,35.0,32.0,30.00,East,82,0.0,0.0,88,0.00,,,0.00,,2013-02-18 08:21:00,
2013-02-18 00:32:00,35.0,32.0,30.00,East,82,0.0,0.0,88,0.00,,,0.00,,2013-02-18 08:32:00,
2013-02-18 00:41:00,35.0,32.0,30.00,East,82,0.0,0.0,88,0.00,,,0.00,,2013-02-18 08:41:00,
2013-02-18 00:52:00,35.0,32.0,30.00,East,82,0.0,0.0,88,0.00,,,0.00,,2013-02-18 08:52:00,
2013-02-18 01:02:00,35.0,32.0,30.00,East,82,0.0,0.0,88,0.00,,,0.00,,2013-02-18 09:02:00,
2013-02-18 01:11:00,35.0,32.0,30.00,East,82,0.0,0.0,88,0.00,,,0.00,,2013-02-18 09:11:00,
2013-02-18 01:22:00,35.0,32.0,29.99,East,82,0.0,0.0,88,0.00,,,0.00,,2013-02-18 09:22:00,
2013-02-18 01:31:00,35.0,32.0,29.99,East,82,0.0,0.0,88,0.00,,,0.00,,2013-02-18 09:31:00,
2013-02-18 01:41:00,35.0,32.0,29.99,East,82,0.0,0.0,88,0.00,,,0.00,,2013-02-18 09:41:00,
2013-02-18 01:52:00,35.0,32.0,29.97,ESE,123,0.0,0.0,88,0.00,,,0.00,,2013-02-18 09:52:00,
2013-02-18 02:01:00,35.0,32.0,29.97,SE,136,0.0,0.0,88,0.00,,,0.00,,2013-02-18 10:01:00,
2013-02-18 02:11:00,35.0,32.0,29.97,SE,136,0.0,0.0,88,0.00,,,0.00,,2013-02-18 10:11:00,
2013-02-18 02:21:00,35.0,32.0,29.96,ESE,118,0.0,0.0,88,0.00,,,0.00,,2013-02-18 10:21:00,
2013-02-18 02:31:00,35.0,32.0,29.96,ESE,118,0.0,0.0,88,0.00,,,0.00,,2013-02-18 10:31:00,
2013-02-18 02:41:00,35.0,32.0,29.96,ESE,118,0.0,0.0,88,0.00,,,0.00,,2013-02-18 10:41:00,
2013-02-18 02:52:00,34.0,31.0,29.96,ESE,119,0.0,0.0,88,0.00,,,0.00,,2013-02-18 10:52:00,
2013-02-18 03:01:00,34.0,31.0,29.96,ESE,118,0.0,0.0,88,0.00,,,0.00,,2013-02-18 11:01:00,
2013-02-18 03:11:00,34.0,31.0,29.96,ESE,118,0.0,0.0,88,0.00,,,0.00,,2013-02-18 11:11:00,
2013-02-18 03:21:00,34.0,31.0,29.95,East,82,0.0,0.0,89,0.00,,,0.00,,2013-02-18 11:21:00,
2013-02-18 03:31:00,34.0,31.0,29.95,East,82,0.0,0.0,89,0.00,,,0.00,,2013-02-18 11:31:00,
2013-02-18 03:42:00,34.0,31.0,29.95,East,82,0.0,0.0,89,0.00,,,0.00,,2013-02-18 11:42:00,
2013-02-18 03:53:00,34.0,31.0,29.95,East,82,0.0,0.0,89,0.00,,,0.00,,2013-02-18 11:53:00,
2013-02-18 04:01:00,34.0,31.0,29.95,East,82,0.0,0.0,89,0.00,,,0.00,,2013-02-18 12:01:00,
2013-02-18 04:11:00,34.0,31.0,29.95,East,82,0.0,0.0,89,0.00,,,0.00,,2013-02-18 12:11:00,
2013-02-18 04:21:00,34.0,31.0,29.95,East,82,0.0,0.0,90,0.00,,,0.00,,2013-02-18 12:21:00,
2013-02-18 04:31:00,34.0,31.0,29.95,East,82,0.0,0.0,90,0.00,,,0.00,,2013-02-18 12:31:00,
2013-02-18 04:42:00,34.0,31.0,29.95,East,82,0.0,0.0,90,0.00,,,0.00,,2013-02-18 12:42:00,
2013-02-18 04:53:00,33.0,30.0,29.92,East,86,0.0,0.0,90,0.00,,,0.00,,2013-02-18 12:53:00,
2013-02-18 05:02:00,33.0,30.0,29.92,East,100,0.0,0.0,90,0.00,,,0.00,,2013-02-18 13:02:00,
2013-02-18 05:11:00,33.0,30.0,29.92,East,100,0.0,0.0,90,0.00,,,0.00,,2013-02-18 13:11:00,
2013-02-18 05:22:00,33.0,30.0,29.93,East,100,0.0,0.0,90,0.00,,,0.00,,2013-02-18 13:22:00,
2013-02-18 05:31:00,33.0,30.0,29.93,East,100,0.0,0.0,90,0.00,,,0.00,,2013-02-18 13:31:00,
2013-02-18 05:41:00,33.0,30.0,29.93,East,100,0.0,0.0,90,0.00,,,0.00,,2013-02-18 13:41:00,
2013-02-18 05:53:00,33.0,30.0,29.93,East,100,0.0,0.0,90,0.00,,,0.00,,2013-02-18 13:53:00,
2013-02-18 06:02:00,33.0,30.0,29.93,East,100,0.0,0.0,90,0.00,,,0.00,,2013-02-18 14:02:00,
2013-02-18 06:11:00,33.0,30.0,29.93,East,100,0.0,0.0,90,0.00,,,0.00,,2013-02-18 14:11:00,
2013-02-18 06:21:00,33.0,30.0,29.95,East,100,0.0,0.0,90,0.00,,,0.00,,2013-02-18 14:21:00,
2013-02-18 06:31:00,33.0,31.0,29.95,East,100,0.0,0.0,91,0.00,,,0.00,,2013-02-18 14:31:00,
2013-02-18 06:41:00,33.0,31.0,29.95,East,100,0.0,0.0,91,0.00,,,0.00,,2013-02-18 14:41:00,
2013-02-18 06:53:00,33.0,31.0,29.95,East,100,0.0,0.0,91,0.00,,,0.00,,2013-02-18 14:53:00,
2013-02-18 07:01:00,33.0,31.0,29.95,East,100,0.0,0.0,91,0.00,,,0.00,,2013-02-18 15:01:00,
2013-02-18 07:11:00,33.0,31.0,29.95,East,100,0.0,0.0,91,0.00,,,0.00,,2013-02-18 15:11:00,
2013-02-18 07:21:00,33.0,31.0,29.95,ESE,117,0.0,0.0,91,0.00,,,0.00,,2013-02-18 15:21:00,
2013-02-18 07:31:00,33.0,31.0,29.95,ESE,117,0.0,0.0,91,0.00,,,0.00,,2013-02-18 15:31:00,
2013-02-18 07:41:00,33.0,31.0,29.95,ESE,117,0.0,0.0,91,0.00,,,0.00,,2013-02-18 15:41:00,
2013-02-18 07:52:00,33.0,31.0,29.95,ESE,117,0.0,0.0,91,0.00,,,0.00,,2013-02-18 15:52:00,
2013-02-18 08:01:00,33.0,31.0,29.95,ESE,117,0.0,0.0,91,0.00,,,0.00,,2013-02-18 16:01:00,
2013-02-18 08:11:00,33.0,31.0,29.95,ESE,117,0.0,0.0,91,0.00,,,0.00,,2013-02-18 16:11:00,
2013-02-18 08:21:00,34.0,32.0,29.96,ESE,117,0.0,0.0,91,0.00,,,0.00,,2013-02-18 16:21:00,
2013-02-18 08:31:00,34.0,32.0,29.96,ESE,117,0.0,0.0,91,0.00,,,0.00,,2013-02-18 16:31:00,
2013-02-18 08:42:00,34.0,32.0,29.96,ESE,117,0.0,0.0,91,0.00,,,0.00,,2013-02-18 16:42:00,
2013-02-18 08:52:00,35.0,33.0,29.96,ESE,117,0.0,0.0,91,0.00,,,0.00,,2013-02-18 16:52:00,
2013-02-18 09:02:00,35.0,33.0,29.96,ESE,117,0.0,0.0,91,0.00,,,0.00,,2013-02-18 17:02:00,
2013-02-18 09:11:00,35.0,33.0,29.96,ESE,117,0.0,0.0,91,0.00,,,0.00,,2013-02-18 17:11:00,
2013-02-18 09:21:00,36.0,33.0,29.95,ESE,123,0.0,0.0,90,0.00,,,0.00,,2013-02-18 17:21:00,
2013-02-18 09:31:00,37.0,34.0,29.95,ESE,123,0.0,0.0,89,0.00,,,0.00,,2013-02-18 17:31:00,
2013-02-18 09:42:00,37.0,34.0,29.95,ESE,123,0.0,0.0,89,0.00,,,0.00,,2013-02-18 17:42:00,
2013-02-18 09:52:00,38.0,34.0,29.95,South,191,0.0,0.0,85,0.00,,,0.00,,2013-02-18 17:52:00,
2013-02-18 10:01:00,39.0,35.0,29.95,SSW,202,0.0,0.0,84,0.00,,,0.00,,2013-02-18 18:01:00,
2013-02-18 10:11:00,39.0,35.0,29.95,SSW,202,0.0,0.0,84,0.00,,,0.00,,2013-02-18 18:11:00,
2013-02-18 10:22:00,39.0,33.0,29.95,SW,219,0.0,0.0,80,0.00,,,0.00,,2013-02-18 18:22:00,
2013-02-18 10:31:00,40.0,34.0,29.95,SW,217,0.0,0.0,78,0.00,,,0.00,,2013-02-18 18:31:00,
2013-02-18 10:42:00,40.0,34.0,29.95,SW,217,0.0,0.0,78,0.00,,,0.00,,2013-02-18 18:42:00,
2013-02-18 10:52:00,41.0,34.0,29.93,South,176,0.0,0.0,77,0.00,,,0.00,,2013-02-18 18:52:00,
2013-02-18 11:01:00,41.0,34.0,29.93,SSW,197,0.0,0.0,76,0.00,,,0.00,,2013-02-18 19:01:00,
2013-02-18 11:11:00,41.0,34.0,29.93,SSW,197,0.0,0.0,76,0.00,,,0.00,,2013-02-18 19:11:00,
2013-02-18 11:21:00,41.0,34.0,29.93,South,180,0.0,0.0,75,0.00,,,0.00,,2013-02-18 19:21:00,
2013-02-18 11:32:00,41.0,33.0,29.93,South,172,0.0,0.0,74,0.00,,,0.00,,2013-02-18 19:32:00,
2013-02-18 11:42:00,41.0,33.0,29.93,South,172,0.0,0.0,74,0.00,,,0.00,,2013-02-18 19:42:00,
2013-02-18 11:52:00,42.0,34.0,29.92,SSW,201,0.0,0.0,72,0.00,,,0.00,,2013-02-18 19:52:00,
2013-02-18 12:01:00,42.0,34.0,29.92,SSW,199,0.0,0.0,72,0.00,,,0.00,,2013-02-18 20:01:00,
2013-02-18 12:11:00,42.0,34.0,29.92,SSW,199,0.0,0.0,72,0.00,,,0.00,,2013-02-18 20:11:00,
2013-02-18 12:21:00,42.0,33.0,29.91,SSW,212,0.0,0.0,69,0.00,,,0.00,,2013-02-18 20:21:00,
2013-02-18 12:31:00,43.0,34.0,29.91,SW,224,0.0,0.0,69,0.00,,,0.00,,2013-02-18 20:31:00,
2013-02-18 12:41:00,43.0,34.0,29.91,SW,224,0.0,0.0,69,0.00,,,0.00,,2013-02-18 20:41:00,
2013-02-18 12:53:00,43.0,32.0,29.89,SW,220,0.0,0.0,66,0.00,,,0.00,,2013-02-18 20:53:00,
2013-02-18 13:02:00,43.0,32.0,29.89,SSE,156,0.0,0.0,66,0.00,,,0.00,,2013-02-18 21:02:00,
2013-02-18 13:11:00,43.0,32.0,29.89,SSE,156,0.0,0.0,66,0.00,,,0.00,,2013-02-18 21:11:00,
2013-02-18 13:21:00,44.0,34.0,29.88,SW,216,0.0,0.0,67,0.00,,,0.00,,2013-02-18 21:21:00,
2013-02-18 13:31:00,44.0,34.0,29.88,WSW,240,0.0,0.0,69,0.00,,,0.00,,2013-02-18 21:31:00,
2013-02-18 13:42:00,44.0,34.0,29.88,WSW,240,0.0,0.0,69,0.00,,,0.00,,2013-02-18 21:42:00,
2013-02-18 13:52:00,44.0,36.0,29.88,West,276,0.0,0.0,72,0.00,,,0.00,,2013-02-18 21:52:00,
2013-02-18 14:01:00,44.0,35.0,29.88,WNW,282,0.0,0.0,70,0.00,,,0.00,,2013-02-18 22:01:00,
2013-02-18 14:11:00,45.0,35.0,29.87,SSW,209,0.0,0.0,67,0.00,,,0.00,,2013-02-18 22:11:00,
2013-02-18 14:21:00,45.0,35.0,29.87,SSW,209,0.0,0.0,67,0.00,,,0.00,,2013-02-18 22:21:00,
2013-02-18 14:32:00,45.0,34.0,29.87,SSW,195,0.0,0.0,66,0.00,,,0.00,,2013-02-18 22:32:00,
2013-02-18 14:42:00,45.0,34.0,29.87,SSW,195,0.0,0.0,66,0.00,,,0.00,,2013-02-18 22:42:00,
2013-02-18 14:53:00,46.0,33.0,29.86,WSW,247,0.0,0.0,61,0.00,,,0.00,,2013-02-18 22:53:00,
2013-02-18 15:01:00,46.0,33.0,29.86,SSW,212,0.0,0.0,61,0.00,,,0.00,,2013-02-18 23:01:00,
2013-02-18 15:11:00,46.0,33.0,29.86,SSW,212,0.0,0.0,61,0.00,,,0.00,,2013-02-18 23:11:00,
2013-02-18 15:22:00,46.0,34.0,29.85,WSW,240,0.0,0.0,62,0.00,,,0.00,,2013-02-18 23:22:00,
2013-02-18 15:31:00,46.0,34.0,29.85,WSW,240,0.0,0.0,62,0.00,,,0.00,,2013-02-18 23:31:00,
2013-02-18 15:42:00,46.0,34.0,29.85,WSW,240,0.0,0.0,62,0.00,,,0.00,,2013-02-18 23:42:00,
2013-02-18 15:53:00,46.0,33.0,29.84,SW,229,0.0,0.0,60,0.00,,,0.00,,2013-02-18 23:53:00,
2013-02-18 16:01:00,46.0,33.0,29.84,SW,224,0.0,0.0,61,0.00,,,0.00,,2013-02-19 00:01:00,
2013-02-18 16:12:00,46.0,33.0,29.84,SW,224,0.0,0.0,61,0.00,,,0.00,,2013-02-19 00:12:00,
2013-02-18 16:22:00,46.0,33.0,29.83,SSE,158,0.0,0.0,61,0.00,,,0.00,,2013-02-19 00:22:00,
2013-02-18 16:32:00,46.0,33.0,29.83,SW,232,0.0,0.0,61,0.00,,,0.00,,2013-02-19 00:32:00,
2013-02-18 16:42:00,46.0,33.0,29.83,SW,232,0.0,0.0,61,0.00,,,0.00,,2013-02-19 00:42:00,
2013-02-18 16:54:00,46.0,33.0,29.82,SSW,193,0.0,0.0,61,0.00,,,0.00,,2013-02-19 00:54:00,
2013-02-18 17:02:00,46.0,33.0,29.82,South,184,0.0,0.0,61,0.00,,,0.00,,2013-02-19 01:02:00,
2013-02-18 17:11:00,46.0,33.0,29.82,South,184,0.0,0.0,61,0.00,,,0.00,,2013-02-19 01:11:00,
2013-02-18 17:22:00,46.0,34.0,29.80,South,184,0.0,0.0,63,0.00,,,0.00,,2013-02-19 01:22:00,
2013-02-18 17:32:00,45.0,33.0,29.80,SW,215,0.0,0.0,63,0.00,,,0.00,,2013-02-19 01:32:00,
2013-02-18 17:42:00,45.0,33.0,29.80,SW,215,0.0,0.0,63,0.00,,,0.00,,2013-02-19 01:42:00,
2013-02-18 17:54:00,45.0,34.0,29.79,South,191,0.0,0.0,65,0.00,,,0.00,,2013-02-19 01:54:00,
2013-02-18 18:01:00,45.0,34.0,29.79,SW,220,0.0,0.0,66,0.00,,,0.00,,2013-02-19 02:01:00,
2013-02-18 18:11:00,45.0,34.0,29.79,SW,220,0.0,0.0,66,0.00,,,0.00,,2013-02-19 02:11:00,
2013-02-18 18:22:00,44.0,33.0,29.78,SSW,205,0.0,0.0,66,0.00,,,0.00,,2013-02-19 02:22:00,
2013-02-18 18:32:00,44.0,33.0,29.78,South,174,0.0,0.0,66,0.00,,,0.00,,2013-02-19 02:32:00,
2013-02-18 18:42:00,44.0,33.0,29.78,South,174,0.0,0.0,66,0.00,,,0.00,,2013-02-19 02:42:00,
2013-02-18 18:54:00,43.0,33.0,29.76,ESE,119,0.0,0.0,68,0.00,,,0.00,,2013-02-19 02:54:00,
2013-02-18 19:03:00,43.0,34.0,29.76,SSE,148,0.0,0.0,69,0.00,,,0.00,,2013-02-19 03:03:00,
2013-02-18 19:12:00,43.0,34.0,29.76,SSE,148,0.0,0.0,69,0.00,,,0.00,,2013-02-19 03:12:00,
2013-02-18 19:22:00,43.0,34.0,29.76,South,183,0.0,0.0,69,0.00,,,0.00,,2013-02-19 03:22:00,
2013-02-18 19:32:00,43.0,34.0,29.76,South,169,0.0,0.0,69,0.00,,,0.00,,2013-02-19 03:32:00,
2013-02-18 19:42:00,43.0,34.0,29.76,South,169,0.0,0.0,69,0.00,,,0.00,,2013-02-19 03:42:00,
2013-02-18 19:54:00,43.0,34.0,29.74,South,185,0.0,0.0,69,0.00,,,0.00,,2013-02-19 03:54:00,
2013-02-18 20:01:00,43.0,33.0,29.74,South,180,0.0,0.0,68,0.00,,,0.00,,2013-02-19 04:01:00,
2013-02-18 20:12:00,43.0,33.0,29.74,South,180,0.0,0.0,68,0.00,,,0.00,,2013-02-19 04:12:00,
2013-02-18 20:21:00,44.0,33.0,29.74,SSE,165,0.0,0.0,66,0.00,,,0.00,,2013-02-19 04:21:00,
2013-02-18 20:32:00,44.0,33.0,29.74,South,174,0.0,0.0,66,0.00,,,0.00,,2013-02-19 04:32:00,
2013-02-18 20:42:00,44.0,33.0,29.74,South,174,0.0,0.0,66,0.00,,,0.00,,2013-02-19 04:42:00,
2013-02-18 20:53:00,44.0,33.0,29.73,SSW,201,0.0,0.0,66,0.00,,,0.00,,2013-02-19 04:53:00,
2013-02-18 21:01:00,44.0,33.0,29.73,SE,143,0.0,0.0,66,0.00,,,0.00,,2013-02-19 05:01:00,
2013-02-18 21:12:00,44.0,33.0,29.73,SE,143,0.0,0.0,66,0.00,,,0.00,,2013-02-19 05:12:00,
2013-02-18 21:22:00,43.0,33.0,29.72,South,185,0.0,0.0,68,0.00,,,0.00,,2013-02-19 05:22:00,
2013-02-18 21:32:00,43.0,34.0,29.72,South,185,0.0,0.0,69,0.00,,,0.00,,2013-02-19 05:32:00,
2013-02-18 21:42:00,43.0,34.0,29.72,South,185,0.0,0.0,69,0.00,,,0.00,,2013-02-19 05:42:00,
2013-02-18 21:52:00,43.0,34.0,29.71,South,184,0.0,0.0,69,0.00,,,0.00,,2013-02-19 05:52:00,
2013-02-18 22:02:00,43.0,34.0,29.71,South,184,0.0,0.0,70,0.00,,,0.00,,2013-02-19 06:02:00,
2013-02-18 22:11:00,43.0,34.0,29.71,South,184,0.0,0.0,70,0.00,,,0.00,,2013-02-19 06:11:00,
2013-02-18 22:21:00,43.0,34.0,29.70,SSW,192,0.0,0.0,69,0.00,,,0.00,,2013-02-19 06:21:00,
2013-02-18 22:32:00,43.0,34.0,29.70,SSW,196,0.0,0.0,70,0.00,,,0.00,,2013-02-19 06:32:00,
2013-02-18 22:41:00,43.0,34.0,29.70,SSW,196,0.0,0.0,70,0.00,,,0.00,,2013-02-19 06:41:00,
2013-02-18 22:52:00,43.0,34.0,29.69,SSE,165,0.0,0.0,71,0.00,,,0.00,,2013-02-19 06:52:00,
2013-02-18 23:01:00,43.0,34.0,29.69,South,186,0.0,0.0,70,0.00,,,0.00,,2013-02-19 07:01:00,
2013-02-18 23:11:00,43.0,34.0,29.69,South,186,0.0,0.0,70,0.00,,,0.00,,2013-02-19 07:11:00,
2013-02-18 23:21:00,42.0,34.0,29.68,SSW,198,0.0,0.0,73,0.00,,,0.00,,2013-02-19 07:21:00,
2013-02-18 23:31:00,42.0,35.0,29.68,SSW,198,0.0,0.0,77,0.00,,,0.00,,2013-02-19 07:31:00,
2013-02-18 23:41:00,42.0,35.0,29.68,SSW,198,0.0,0.0,77,0.00,,,0.00,,2013-02-19 07:41:00,
2013-02-18 23:52:00,41.0,35.0,29.67,SSW,198,0.0,0.0,80,0.00,,,0.00,,2013-02-19 07:52:00,